Date_UTC,IAGA,MLT,MLAT,IGRF_DECL,SZA,N,E,Z
2015-08-15 08:00:00,NOR,10.33,68.19,12.57,60.86,-8.2,16.4,-2.0
2015-08-15 08:01:00,NOR,10.35,68.19,12.57,60.81,-8.2,16.6,-0.4
2015-08-15 08:02:00,NOR,10.37,68.19,12.57,60.76,-9.0,16.9,-0.1
2015-08-15 08:03:00,NOR,10.38,68.19,12.57,60.71,-10.1,16.5,0.6
2015-08-15 08:04:00,NOR,10.40,68.19,12.57,60.65,-10.0,16.9,0.2
2015-08-15 08:05:00,NOR,10.42,68.19,12.57,60.60,-9.2,16.3,-2.2
2015-08-15 08:06:00,NOR,10.43,68.19,12.57,60.55,-10.3,16.4,0.1
2015-08-15 08:07:00,NOR,10.45,68.19,12.57,60.50,-11.3,18.4,2.8
2015-08-15 08:08:00,NOR,10.47,68.19,12.57,60.45,-9.6,17.6,-1.6
2015-08-15 08:09:00,NOR,10.48,68.19,12.57,60.40,-8.4,16.9,-2.4
2015-08-15 08:10:00,NOR,10.50,68.19,12.57,60.36,-9.1,17.2,-2.2
2015-08-15 08:11:00,NOR,10.52,68.19,12.57,60.31,-7.9,16.0,-5.5
2015-08-15 08:12:00,NOR,10.53,68.19,12.57,60.26,-7.0,15.3,-5.9
2015-08-15 08:13:00,NOR,10.55,68.19,12.57,60.21,-7.2,16.0,-5.0
2015-08-15 08:14:00,NOR,10.57,68.19,12.57,60.16,-7.5,15.8,-5.3
2015-08-15 08:15:00,NOR,10.59,68.19,12.57,60.12,-6.6,15.4,-6.6
2015-08-15 08:16:00,NOR,10.60,68.19,12.57,60.07,-6.6,13.0,-7.7
2015-08-15 08:17:00,NOR,10.62,68.19,12.57,60.02,-9.8,15.4,0.4
2015-08-15 08:18:00,NOR,10.64,68.19,12.57,59.98,-11.0,19.5,2.4
2015-08-15 08:19:00,NOR,10.65,68.19,12.57,59.93,-8.6,17.4,-3.7
2015-08-15 08:20:00,NOR,10.67,68.19,12.57,59.88,-6.8,16.2,-4.3
2015-08-15 08:21:00,NOR,10.69,68.19,12.57,59.84,-6.3,16.0,-6.1
2015-08-15 08:22:00,NOR,10.70,68.19,12.57,59.79,-5.1,12.8,-10.8
2015-08-15 08:23:00,NOR,10.72,68.19,12.57,59.75,-7.1,12.9,-5.0
2015-08-15 08:24:00,NOR,10.74,68.19,12.57,59.70,-9.4,17.3,0.5
2015-08-15 08:25:00,NOR,10.75,68.19,12.57,59.66,-8.9,17.1,-1.9
2015-08-15 08:26:00,NOR,10.77,68.19,12.57,59.61,-8.0,15.4,-2.9
2015-08-15 08:27:00,NOR,10.79,68.19,12.57,59.57,-8.0,15.6,-3.6
2015-08-15 08:28:00,NOR,10.80,68.19,12.57,59.53,-7.2,14.3,-7.0
2015-08-15 08:29:00,NOR,10.82,68.19,12.57,59.49,-15.3,-0.1,-12.2
2015-08-15 08:30:00,NOR,10.84,68.19,12.57,59.44,-18.0,31.2,39.9
2015-08-15 08:31:00,NOR,10.85,68.19,12.57,59.40,0.1,27.6,3.5
2015-08-15 08:32:00,NOR,10.87,68.19,12.57,59.36,15.3,20.5,-24.5
2015-08-15 08:33:00,NOR,10.89,68.19,12.57,59.32,28.6,29.3,-34.5
2015-08-15 08:34:00,NOR,10.90,68.19,12.57,59.28,44.0,18.8,-60.5
2015-08-15 08:35:00,NOR,10.92,68.19,12.57,59.23,34.9,17.8,-44.4
2015-08-15 08:36:00,NOR,10.94,68.19,12.57,59.19,27.1,32.8,-23.4
2015-08-15 08:37:00,NOR,10.95,68.19,12.57,59.15,29.8,25.9,-29.9
2015-08-15 08:38:00,NOR,10.97,68.19,12.57,59.11,19.6,41.6,-3.8
2015-08-15 08:39:00,NOR,10.99,68.19,12.57,59.07,24.8,47.2,-11.1
2015-08-15 08:40:00,NOR,11.00,68.19,12.57,59.04,26.7,52.4,-1.4
2015-08-15 08:41:00,NOR,11.02,68.19,12.57,59.00,32.2,55.4,-18.7
2015-08-15 08:42:00,NOR,11.04,68.19,12.57,58.96,45.3,38.1,-46.0
2015-08-15 08:43:00,NOR,11.05,68.19,12.57,58.92,46.5,32.8,-50.7
2015-08-15 08:44:00,NOR,11.07,68.19,12.57,58.88,44.0,21.2,-55.0
2015-08-15 08:45:00,NOR,11.09,68.19,12.57,58.84,45.2,27.4,-45.0
2015-08-15 08:46:00,NOR,11.10,68.19,12.57,58.81,37.0,26.3,-36.7
2015-08-15 08:47:00,NOR,11.12,68.19,12.57,58.77,37.5,20.4,-41.9
2015-08-15 08:48:00,NOR,11.14,68.19,12.57,58.73,29.5,31.7,-20.2
2015-08-15 08:49:00,NOR,11.15,68.19,12.57,58.70,39.4,23.3,-44.2
2015-08-15 08:50:00,NOR,11.17,68.19,12.57,58.66,30.4,16.0,-32.2
2015-08-15 08:51:00,NOR,11.19,68.19,12.57,58.63,26.8,25.0,-24.0
2015-08-15 08:52:00,NOR,11.20,68.19,12.57,58.59,23.0,17.4,-20.2
2015-08-15 08:53:00,NOR,11.22,68.19,12.57,58.56,21.5,27.8,-6.4
2015-08-15 08:54:00,NOR,11.24,68.19,12.57,58.52,25.6,27.5,-16.4
2015-08-15 08:55:00,NOR,11.25,68.19,12.57,58.49,21.8,24.4,-7.6
2015-08-15 08:56:00,NOR,11.27,68.19,12.57,58.46,29.3,25.4,-21.3
2015-08-15 08:57:00,NOR,11.29,68.19,12.57,58.42,25.0,17.9,-20.1
2015-08-15 08:58:00,NOR,11.30,68.19,12.57,58.39,25.0,21.9,-13.3
2015-08-15 08:59:00,NOR,11.32,68.19,12.57,58.36,23.3,17.4,-16.2
2015-08-15 09:00:00,NOR,11.34,68.19,12.57,58.32,26.5,11.4,-26.3
2015-08-15 09:01:00,NOR,11.36,68.19,12.57,58.29,29.7,1.8,-40.3
2015-08-15 09:02:00,NOR,11.37,68.19,12.57,58.26,26.5,-5.2,-39.2
2015-08-15 09:03:00,NOR,11.39,68.19,12.57,58.23,24.1,-5.8,-30.8
2015-08-15 09:04:00,NOR,11.41,68.19,12.57,58.20,17.0,-14.4,-28.9
2015-08-15 09:05:00,NOR,11.42,68.19,12.57,58.17,6.0,-9.3,-5.1
2015-08-15 09:06:00,NOR,11.44,68.19,12.57,58.14,0.7,3.7,13.4
2015-08-15 09:07:00,NOR,11.46,68.19,12.57,58.11,4.1,2.4,3.2
2015-08-15 09:08:00,NOR,11.47,68.19,12.57,58.08,2.8,-2.2,0.8
2015-08-15 09:09:00,NOR,11.49,68.19,12.57,58.05,5.1,-2.1,-1.6
2015-08-15 09:10:00,NOR,11.51,68.19,12.57,58.02,2.5,-7.3,-5.1
2015-08-15 09:11:00,NOR,11.52,68.19,12.57,58.00,6.1,-10.4,-10.0
2015-08-15 09:12:00,NOR,11.54,68.19,12.57,57.97,6.2,-17.8,-16.4
2015-08-15 09:13:00,NOR,11.56,68.19,12.57,57.94,-5.3,-9.1,7.7
2015-08-15 09:14:00,NOR,11.57,68.19,12.57,57.91,-10.1,-6.6,18.0
2015-08-15 09:15:00,NOR,11.59,68.19,12.57,57.89,-2.3,-10.7,1.6
2015-08-15 09:16:00,NOR,11.61,68.19,12.57,57.86,-0.0,-8.0,-0.7
2015-08-15 09:17:00,NOR,11.62,68.19,12.57,57.84,5.2,-9.7,-9.6
2015-08-15 09:18:00,NOR,11.64,68.19,12.57,57.81,4.1,-12.1,-9.5
2015-08-15 09:19:00,NOR,11.66,68.19,12.57,57.79,7.2,-7.8,-12.1
2015-08-15 09:20:00,NOR,11.67,68.19,12.57,57.76,11.8,-12.8,-24.9
2015-08-15 09:21:00,NOR,11.69,68.19,12.57,57.74,17.0,-11.3,-28.0
2015-08-15 09:22:00,NOR,11.71,68.19,12.57,57.71,16.9,-2.8,-16.0
2015-08-15 09:23:00,NOR,11.72,68.19,12.57,57.69,18.1,4.7,-11.2
2015-08-15 09:24:00,NOR,11.74,68.19,12.57,57.67,30.1,10.9,-20.5
2015-08-15 09:25:00,NOR,11.76,68.19,12.57,57.64,32.8,16.4,-15.8
2015-08-15 09:26:00,NOR,11.77,68.19,12.57,57.62,38.8,15.5,-24.6
2015-08-15 09:27:00,NOR,11.79,68.19,12.57,57.60,42.6,13.0,-29.5
2015-08-15 09:28:00,NOR,11.81,68.19,12.57,57.58,54.9,7.4,-50.7
2015-08-15 09:29:00,NOR,11.82,68.19,12.57,57.56,59.3,-0.4,-59.7
2015-08-15 09:30:00,NOR,11.84,68.19,12.57,57.54,55.4,-4.1,-52.7
2015-08-15 09:31:00,NOR,11.86,68.19,12.57,57.52,50.3,-13.3,-50.4
2015-08-15 09:32:00,NOR,11.88,68.19,12.57,57.50,55.9,-20.9,-59.2
2015-08-15 09:33:00,NOR,11.89,68.19,12.57,57.48,55.8,-28.4,-60.8
2015-08-15 09:34:00,NOR,11.91,68.19,12.57,57.46,40.1,-29.2,-35.0
2015-08-15 09:35:00,NOR,11.93,68.19,12.57,57.44,52.7,-22.8,-47.0
2015-08-15 09:36:00,NOR,11.94,68.19,12.57,57.42,63.2,-22.1,-60.2
2015-08-15 09:37:00,NOR,11.96,68.19,12.57,57.40,57.3,-18.6,-41.2
2015-08-15 09:38:00,NOR,11.98,68.19,12.57,57.39,50.6,-10.0,-18.0
2015-08-15 09:39:00,NOR,11.99,68.19,12.57,57.37,47.7,-0.4,-3.4
2015-08-15 09:40:00,NOR,12.01,68.19,12.57,57.35,44.7,-1.2,2.3
2015-08-15 09:41:00,NOR,12.03,68.19,12.57,57.34,41.1,1.8,10.9
2015-08-15 09:42:00,NOR,12.04,68.19,12.57,57.32,36.4,-2.7,12.4
2015-08-15 09:43:00,NOR,12.06,68.19,12.57,57.30,33.3,-6.0,11.5
2015-08-15 09:44:00,NOR,12.08,68.19,12.57,57.29,27.7,-9.2,16.8
2015-08-15 09:45:00,NOR,12.09,68.19,12.57,57.27,25.8,-7.7,20.4
2015-08-15 09:46:00,NOR,12.11,68.19,12.57,57.26,32.6,-4.7,13.0
2015-08-15 09:47:00,NOR,12.13,68.19,12.57,57.25,32.3,-5.9,12.1
2015-08-15 09:48:00,NOR,12.14,68.19,12.57,57.23,36.8,-0.2,12.2
2015-08-15 09:49:00,NOR,12.16,68.19,12.57,57.22,34.9,0.3,18.1
2015-08-15 09:50:00,NOR,12.18,68.19,12.57,57.21,40.0,2.6,11.8
2015-08-15 09:51:00,NOR,12.19,68.19,12.57,57.19,44.5,2.7,9.5
2015-08-15 09:52:00,NOR,12.21,68.19,12.57,57.18,43.7,0.5,10.5
2015-08-15 09:53:00,NOR,12.23,68.19,12.57,57.17,43.5,4.2,13.0
2015-08-15 09:54:00,NOR,12.24,68.19,12.57,57.16,42.8,5.5,8.6
2015-08-15 09:55:00,NOR,12.26,68.19,12.57,57.15,50.1,4.1,-4.9
2015-08-15 09:56:00,NOR,12.28,68.19,12.57,57.14,58.5,-6.0,-20.6
2015-08-15 09:57:00,NOR,12.29,68.19,12.57,57.13,58.7,-13.1,-21.7
2015-08-15 09:58:00,NOR,12.31,68.19,12.57,57.12,54.8,-10.9,-11.7
2015-08-15 09:59:00,NOR,12.33,68.19,12.57,57.11,50.1,-13.8,-8.8
2015-08-15 10:00:00,NOR,12.34,68.19,12.57,57.10,52.0,-11.9,-8.0
2015-08-15 10:01:00,NOR,12.36,68.19,12.57,57.09,62.4,-10.2,-16.2
2015-08-15 10:02:00,NOR,12.38,68.19,12.57,57.08,61.2,-5.7,-5.8
2015-08-15 10:03:00,NOR,12.39,68.19,12.57,57.08,56.8,-11.9,-5.9
2015-08-15 10:04:00,NOR,12.41,68.19,12.57,57.07,59.4,-9.2,-5.9
2015-08-15 10:05:00,NOR,12.43,68.19,12.57,57.06,52.0,-13.6,3.5
2015-08-15 10:06:00,NOR,12.44,68.19,12.57,57.06,54.1,-12.4,2.7
2015-08-15 10:07:00,NOR,12.46,68.19,12.57,57.05,51.4,-6.5,15.5
2015-08-15 10:08:00,NOR,12.48,68.19,12.57,57.05,48.3,-7.6,15.6
2015-08-15 10:09:00,NOR,12.49,68.19,12.57,57.04,56.9,-6.5,6.7
2015-08-15 10:10:00,NOR,12.51,68.19,12.57,57.04,68.6,3.0,6.6
2015-08-15 10:11:00,NOR,12.53,68.19,12.57,57.03,71.7,16.9,20.7
2015-08-15 10:12:00,NOR,12.54,68.19,12.57,57.03,74.7,23.1,30.2
2015-08-15 10:13:00,NOR,12.56,68.19,12.57,57.02,85.6,19.9,15.5
2015-08-15 10:14:00,NOR,12.58,68.19,12.57,57.02,95.3,21.2,6.5
2015-08-15 10:15:00,NOR,12.59,68.19,12.57,57.02,95.8,29.1,18.9
2015-08-15 10:16:00,NOR,12.61,68.19,12.57,57.02,98.8,35.8,26.4
2015-08-15 10:17:00,NOR,12.63,68.19,12.57,57.01,107.9,40.5,22.6
2015-08-15 10:18:00,NOR,12.64,68.19,12.57,57.01,111.4,37.4,12.8
2015-08-15 10:19:00,NOR,12.66,68.19,12.57,57.01,120.6,40.6,3.4
2015-08-15 10:20:00,NOR,12.68,68.19,12.57,57.01,133.3,40.1,-5.9
2015-08-15 10:21:00,NOR,12.69,68.19,12.57,57.01,139.5,34.1,-16.4
2015-08-15 10:22:00,NOR,12.71,68.19,12.57,57.01,135.9,32.2,-8.3
2015-08-15 10:23:00,NOR,12.73,68.19,12.57,57.01,132.2,31.2,2.9
2015-08-15 10:24:00,NOR,12.74,68.19,12.57,57.01,126.7,32.1,12.9
2015-08-15 10:25:00,NOR,12.76,68.19,12.57,57.02,128.1,30.7,10.3
2015-08-15 10:26:00,NOR,12.78,68.19,12.57,57.02,131.0,9.7,-12.9
2015-08-15 10:27:00,NOR,12.79,68.19,12.57,57.02,132.5,-8.0,-31.0
2015-08-15 10:28:00,NOR,12.81,68.19,12.57,57.02,129.9,-28.9,-37.4
2015-08-15 10:29:00,NOR,12.83,68.19,12.57,57.03,130.7,-29.4,-33.4
2015-08-15 10:30:00,NOR,12.84,68.19,12.57,57.03,128.8,-37.3,-35.3
2015-08-15 10:31:00,NOR,12.86,68.19,12.57,57.03,96.1,-68.6,-19.7
2015-08-15 10:32:00,NOR,12.88,68.19,12.57,57.04,69.5,-76.0,25.8
2015-08-15 10:33:00,NOR,12.89,68.19,12.57,57.04,45.0,-51.1,90.4
2015-08-15 10:34:00,NOR,12.91,68.19,12.57,57.05,37.8,-7.9,125.0
2015-08-15 10:35:00,NOR,12.93,68.19,12.57,57.05,49.2,11.0,101.8
2015-08-15 10:36:00,NOR,12.94,68.19,12.57,57.06,67.6,16.8,65.9
2015-08-15 10:37:00,NOR,12.96,68.19,12.57,57.06,89.7,18.3,43.1
2015-08-15 10:38:00,NOR,12.98,68.19,12.57,57.07,107.9,18.4,30.4
2015-08-15 10:39:00,NOR,12.99,68.19,12.57,57.08,124.3,25.8,17.7
2015-08-15 10:40:00,NOR,13.01,68.19,12.57,57.09,127.5,26.8,12.6
2015-08-15 10:41:00,NOR,13.02,68.19,12.57,57.09,131.5,16.2,2.9
2015-08-15 10:42:00,NOR,13.04,68.19,12.57,57.10,133.0,3.3,-4.3
2015-08-15 10:43:00,NOR,13.06,68.19,12.57,57.11,145.8,7.5,-7.4
2015-08-15 10:44:00,NOR,13.07,68.19,12.57,57.12,140.4,15.1,11.8
2015-08-15 10:45:00,NOR,13.09,68.19,12.57,57.13,134.3,27.2,32.2
2015-08-15 10:46:00,NOR,13.11,68.19,12.57,57.14,140.2,30.7,23.9
2015-08-15 10:47:00,NOR,13.12,68.19,12.57,57.15,149.3,23.2,12.7
2015-08-15 10:48:00,NOR,13.14,68.19,12.57,57.16,161.3,38.2,18.6
2015-08-15 10:49:00,NOR,13.16,68.19,12.57,57.17,174.2,35.7,-3.0
2015-08-15 10:50:00,NOR,13.17,68.19,12.57,57.18,179.2,15.3,-23.6
2015-08-15 10:51:00,NOR,13.19,68.19,12.57,57.20,176.0,5.4,-16.4
2015-08-15 10:52:00,NOR,13.21,68.19,12.57,57.21,171.7,-6.3,-8.0
2015-08-15 10:53:00,NOR,13.22,68.19,12.57,57.22,152.4,-8.2,15.3
2015-08-15 10:54:00,NOR,13.24,68.19,12.57,57.24,146.7,-0.3,24.9
2015-08-15 10:55:00,NOR,13.25,68.19,12.57,57.25,154.7,3.0,20.8
2015-08-15 10:56:00,NOR,13.27,68.19,12.57,57.26,157.4,-11.1,3.9
2015-08-15 10:57:00,NOR,13.29,68.19,12.57,57.28,157.4,-17.4,-1.4
2015-08-15 10:58:00,NOR,13.30,68.19,12.57,57.29,162.2,-18.4,-4.4
2015-08-15 10:59:00,NOR,13.32,68.19,12.57,57.31,156.8,-30.0,-7.6
2015-08-15 11:00:00,NOR,13.34,68.19,12.57,57.32,157.5,-36.2,-1.6
2015-08-15 11:01:00,NOR,13.35,68.19,12.57,57.34,151.5,-39.0,19.7
2015-08-15 11:02:00,NOR,13.37,68.19,12.57,57.36,150.0,-21.4,43.5
2015-08-15 11:03:00,NOR,13.38,68.19,12.57,57.37,161.9,-19.9,14.3
2015-08-15 11:04:00,NOR,13.40,68.19,12.57,57.39,183.5,-29.9,-31.6
2015-08-15 11:05:00,NOR,13.42,68.19,12.57,57.41,192.8,-49.2,-52.1
2015-08-15 11:06:00,NOR,13.43,68.19,12.57,57.43,207.2,-51.2,-60.6
2015-08-15 11:07:00,NOR,13.45,68.19,12.57,57.44,216.5,-41.4,-49.7
2015-08-15 11:08:00,NOR,13.47,68.19,12.57,57.46,213.6,-36.4,-17.9
2015-08-15 11:09:00,NOR,13.48,68.19,12.57,57.48,189.3,-45.4,19.6
2015-08-15 11:10:00,NOR,13.50,68.19,12.57,57.50,173.7,-26.3,53.2
2015-08-15 11:11:00,NOR,13.51,68.19,12.57,57.52,177.2,1.4,59.2
2015-08-15 11:12:00,NOR,13.53,68.19,12.57,57.54,186.8,2.7,37.3
2015-08-15 11:13:00,NOR,13.55,68.19,12.57,57.56,186.9,8.0,51.6
2015-08-15 11:14:00,NOR,13.56,68.19,12.57,57.58,179.8,22.1,79.1
2015-08-15 11:15:00,NOR,13.58,68.19,12.57,57.61,186.3,42.9,76.4
2015-08-15 11:16:00,NOR,13.59,68.19,12.57,57.63,195.8,34.1,32.4
2015-08-15 11:17:00,NOR,13.61,68.19,12.57,57.65,207.5,27.4,10.3
2015-08-15 11:18:00,NOR,13.63,68.19,12.57,57.67,211.5,22.3,7.8
2015-08-15 11:19:00,NOR,13.64,68.19,12.57,57.70,215.8,28.6,8.7
2015-08-15 11:20:00,NOR,13.66,68.19,12.57,57.72,205.7,26.3,19.8
2015-08-15 11:21:00,NOR,13.67,68.19,12.57,57.74,196.1,29.2,15.8
2015-08-15 11:22:00,NOR,13.69,68.19,12.57,57.77,201.3,34.0,-0.3
2015-08-15 11:23:00,NOR,13.71,68.19,12.57,57.79,207.1,40.9,-0.4
2015-08-15 11:24:00,NOR,13.72,68.19,12.57,57.82,201.1,53.9,6.5
2015-08-15 11:25:00,NOR,13.74,68.19,12.57,57.84,196.3,57.0,18.8
2015-08-15 11:26:00,NOR,13.75,68.19,12.57,57.87,178.6,56.0,32.5
2015-08-15 11:27:00,NOR,13.77,68.19,12.57,57.90,168.8,55.5,26.7
2015-08-15 11:28:00,NOR,13.79,68.19,12.57,57.92,168.4,61.4,15.7
2015-08-15 11:29:00,NOR,13.80,68.19,12.57,57.95,167.9,68.6,13.4
2015-08-15 11:30:00,NOR,13.82,68.19,12.57,57.98,164.4,68.3,17.6
2015-08-15 11:31:00,NOR,13.83,68.19,12.57,58.00,170.9,79.1,16.2
2015-08-15 11:32:00,NOR,13.85,68.19,12.57,58.03,175.2,75.5,8.6
2015-08-15 11:33:00,NOR,13.87,68.19,12.57,58.06,175.9,81.7,-0.2
2015-08-15 11:34:00,NOR,13.88,68.19,12.57,58.09,179.6,85.1,-16.6
2015-08-15 11:35:00,NOR,13.90,68.19,12.57,58.12,173.8,86.5,-18.2
2015-08-15 11:36:00,NOR,13.91,68.19,12.57,58.15,173.8,95.2,-22.6
2015-08-15 11:37:00,NOR,13.93,68.19,12.57,58.18,180.5,94.9,-39.1
2015-08-15 11:38:00,NOR,13.94,68.19,12.57,58.21,170.6,107.0,-29.6
2015-08-15 11:39:00,NOR,13.96,68.19,12.57,58.24,166.4,124.1,-21.5
2015-08-15 11:40:00,NOR,13.98,68.19,12.57,58.27,168.8,127.3,-29.5
2015-08-15 11:41:00,NOR,13.99,68.19,12.57,58.30,176.7,120.6,-48.8
2015-08-15 11:42:00,NOR,14.01,68.19,12.57,58.33,189.6,111.3,-72.3
2015-08-15 11:43:00,NOR,14.02,68.19,12.57,58.37,195.1,109.8,-75.3
2015-08-15 11:44:00,NOR,14.04,68.19,12.57,58.40,206.4,112.3,-82.3
2015-08-15 11:45:00,NOR,14.05,68.19,12.57,58.43,228.5,106.4,-105.2
2015-08-15 11:46:00,NOR,14.07,68.19,12.57,58.47,249.7,102.1,-123.2
2015-08-15 11:47:00,NOR,14.09,68.19,12.57,58.50,263.9,98.7,-142.0
2015-08-15 11:48:00,NOR,14.10,68.19,12.57,58.53,275.5,106.0,-137.6
2015-08-15 11:49:00,NOR,14.12,68.19,12.57,58.57,284.1,103.3,-142.2
2015-08-15 11:50:00,NOR,14.13,68.19,12.57,58.60,287.3,94.4,-161.5
2015-08-15 11:51:00,NOR,14.15,68.19,12.57,58.64,282.9,99.7,-163.6
2015-08-15 11:52:00,NOR,14.16,68.19,12.57,58.67,288.2,100.8,-163.5
2015-08-15 11:53:00,NOR,14.18,68.19,12.57,58.71,288.2,96.8,-170.7
2015-08-15 11:54:00,NOR,14.19,68.19,12.57,58.74,299.0,108.5,-180.3
2015-08-15 11:55:00,NOR,14.21,68.19,12.57,58.78,313.8,113.1,-195.6
2015-08-15 11:56:00,NOR,14.23,68.19,12.57,58.82,320.0,100.2,-214.9
2015-08-15 11:57:00,NOR,14.24,68.19,12.57,58.86,320.1,108.1,-200.5
2015-08-15 11:58:00,NOR,14.26,68.19,12.57,58.89,313.0,96.9,-211.6
2015-08-15 11:59:00,NOR,14.27,68.19,12.57,58.93,320.1,94.3,-231.7
2015-08-15 12:00:00,NOR,14.29,68.19,12.57,58.97,327.0,99.0,-249.9
2015-08-15 12:01:00,NOR,14.30,68.19,12.57,59.01,328.7,99.7,-263.9
2015-08-15 12:02:00,NOR,14.32,68.19,12.57,59.05,337.2,97.0,-270.8
2015-08-15 12:03:00,NOR,14.33,68.19,12.57,59.09,349.8,92.6,-265.3
2015-08-15 12:04:00,NOR,14.35,68.19,12.57,59.13,356.3,95.9,-244.1
2015-08-15 12:05:00,NOR,14.36,68.19,12.57,59.17,357.9,101.7,-233.1
2015-08-15 12:06:00,NOR,14.38,68.19,12.57,59.21,349.1,88.0,-242.4
2015-08-15 12:07:00,NOR,14.39,68.19,12.57,59.25,359.1,86.9,-267.3
2015-08-15 12:08:00,NOR,14.41,68.19,12.57,59.29,379.5,91.1,-299.1
2015-08-15 12:09:00,NOR,14.42,68.19,12.57,59.33,384.4,106.1,-301.9
2015-08-15 12:10:00,NOR,14.44,68.19,12.57,59.37,413.6,98.3,-290.5
2015-08-15 12:11:00,NOR,14.46,68.19,12.57,59.41,437.5,76.6,-280.3
2015-08-15 12:12:00,NOR,14.47,68.19,12.57,59.46,444.4,53.9,-264.2
2015-08-15 12:13:00,NOR,14.49,68.19,12.57,59.50,456.7,28.9,-238.1
2015-08-15 12:14:00,NOR,14.50,68.19,12.57,59.54,456.5,20.2,-210.6
2015-08-15 12:15:00,NOR,14.52,68.19,12.57,59.59,449.8,29.4,-177.5
2015-08-15 12:16:00,NOR,14.53,68.19,12.57,59.63,451.9,67.4,-131.2
2015-08-15 12:17:00,NOR,14.55,68.19,12.57,59.67,428.1,86.5,-98.5
2015-08-15 12:18:00,NOR,14.56,68.19,12.57,59.72,429.5,107.2,-68.5
2015-08-15 12:19:00,NOR,14.58,68.19,12.57,59.76,417.6,92.7,-83.8
2015-08-15 12:20:00,NOR,14.59,68.19,12.57,59.81,384.9,61.4,-85.7
2015-08-15 12:21:00,NOR,14.61,68.19,12.57,59.85,329.7,50.6,-42.1
2015-08-15 12:22:00,NOR,14.62,68.19,12.57,59.90,275.5,77.0,0.6
2015-08-15 12:23:00,NOR,14.64,68.19,12.57,59.94,251.0,97.8,-28.3
2015-08-15 12:24:00,NOR,14.65,68.19,12.57,59.99,242.0,97.9,-64.9
2015-08-15 12:25:00,NOR,14.67,68.19,12.57,60.04,229.1,82.4,-73.8
2015-08-15 12:26:00,NOR,14.68,68.19,12.57,60.08,200.4,73.1,-68.0
2015-08-15 12:27:00,NOR,14.70,68.19,12.57,60.13,167.5,80.4,-55.1
2015-08-15 12:28:00,NOR,14.71,68.19,12.57,60.18,146.6,85.5,-63.6
2015-08-15 12:29:00,NOR,14.73,68.19,12.57,60.23,112.2,98.3,-64.9
2015-08-15 12:30:00,NOR,14.74,68.19,12.57,60.28,92.1,102.4,-75.5
2015-08-15 12:31:00,NOR,14.76,68.19,12.57,60.32,75.3,105.9,-105.6
2015-08-15 12:32:00,NOR,14.77,68.19,12.57,60.37,58.7,88.9,-146.3
2015-08-15 12:33:00,NOR,14.79,68.19,12.57,60.42,55.6,80.9,-171.9
2015-08-15 12:34:00,NOR,14.80,68.19,12.57,60.47,62.1,77.8,-210.0
2015-08-15 12:35:00,NOR,14.82,68.19,12.57,60.52,82.7,63.3,-244.6
2015-08-15 12:36:00,NOR,14.83,68.19,12.57,60.57,94.7,51.7,-263.3
2015-08-15 12:37:00,NOR,14.85,68.19,12.57,60.62,125.8,37.5,-265.2
2015-08-15 12:38:00,NOR,14.86,68.19,12.57,60.67,146.3,33.7,-262.5
2015-08-15 12:39:00,NOR,14.88,68.19,12.57,60.72,144.1,36.7,-255.8
2015-08-15 12:40:00,NOR,14.89,68.19,12.57,60.77,137.0,35.4,-245.4
2015-08-15 12:41:00,NOR,14.91,68.19,12.57,60.83,125.1,47.8,-229.9
2015-08-15 12:42:00,NOR,14.92,68.19,12.57,60.88,121.3,52.5,-224.9
2015-08-15 12:43:00,NOR,14.93,68.19,12.57,60.93,112.0,50.3,-216.7
2015-08-15 12:44:00,NOR,14.95,68.19,12.57,60.98,116.0,41.0,-237.8
2015-08-15 12:45:00,NOR,14.96,68.19,12.57,61.04,141.4,27.7,-279.8
2015-08-15 12:46:00,NOR,14.98,68.19,12.57,61.09,149.0,22.5,-310.7
2015-08-15 12:47:00,NOR,14.99,68.19,12.57,61.14,162.6,12.4,-332.7
2015-08-15 12:48:00,NOR,15.01,68.19,12.57,61.20,192.6,1.8,-385.4
2015-08-15 12:49:00,NOR,15.02,68.19,12.57,61.25,230.0,-38.9,-467.4
2015-08-15 12:50:00,NOR,15.04,68.19,12.57,61.30,287.8,-31.5,-450.0
2015-08-15 12:51:00,NOR,15.05,68.19,12.57,61.36,305.2,35.6,-449.8
2015-08-15 12:52:00,NOR,15.07,68.19,12.57,61.41,336.6,32.0,-524.2
2015-08-15 12:53:00,NOR,15.08,68.19,12.57,61.47,344.3,-76.0,-540.9
2015-08-15 12:54:00,NOR,15.10,68.19,12.57,61.52,390.3,-108.4,-390.4
2015-08-15 12:55:00,NOR,15.11,68.19,12.57,61.58,416.1,-10.9,-332.6
2015-08-15 12:56:00,NOR,15.13,68.19,12.57,61.63,383.8,-41.0,-383.9
2015-08-15 12:57:00,NOR,15.14,68.19,12.57,61.69,355.8,-67.9,-271.8
2015-08-15 12:58:00,NOR,15.16,68.19,12.57,61.75,366.4,-26.7,-204.6
2015-08-15 12:59:00,NOR,15.17,68.19,12.57,61.80,398.4,3.9,-221.4
2015-08-15 13:00:00,NOR,15.18,68.19,12.57,61.86,410.7,-14.4,-314.5
